STARLINK-11286 [DTC]

Last updated on Fri Oct 04 2024 00:02:04 GMT+0000 (Coordinated Universal Time)

1 61050U 24164A 24277.51558376 .00024935 00000+0 15584-3 0 9999 2 61050 53.1579 6.2845 0001149 95.0970 265.0182 15.76737474 3394
UTC large
Height (km)
Speed (km/s)
/
Latitude / Longitude
Inclination (degrees)
Orbital Period (minutes)
Azimuth
Elevation
Range (km)
Doppler Factor

Next 0 passes for location: London (51.5072 / 0.1276)

Sorry there are no passes over London.